| time (UTC) | temp F | wind direction | speed knots | gust knots | rain 1hr in | rain 24hr in | rain mn in | humidity % | barometer mb |
| 20260505114503 | 54 | 296 | 0.0 | 3.5 | 0.00 | 0.14 | 0.08 | 88 | 1014.0 |
| 20260505114003 | 54 | 271 | 0.0 | 1.7 | 0.00 | 0.14 | 0.08 | 88 | 1014.0 |
| 20260505113503 | 54 | 269 | 0.0 | 1.7 | 0.00 | 0.14 | 0.08 | 88 | 1014.1 |
| 20260505113003 | 54 | 281 | 0.0 | 2.6 | 0.00 | 0.14 | 0.08 | 87 | 1014.1 |
| 20260505112503 | 54 | 330 | 0.0 | 2.6 | 0.00 | 0.14 | 0.08 | 87 | 1014.3 |
| 20260505112004 | 53 | 346 | 0.0 | 1.7 | 0.00 | 0.14 | 0.08 | 87 | 1014.4 |
| 20260505111504 | 53 | 276 | 0.9 | 3.5 | 0.00 | 0.14 | 0.08 | 87 | 1014.3 |
| 20260505111003 | 53 | 265 | 0.9 | 3.5 | 0.00 | 0.14 | 0.08 | 87 | 1014.2 |
| 20260505110503 | 53 | 258 | 0.0 | 1.7 | 0.00 | 0.14 | 0.08 | 87 | 1014.2 |
| 20260505102003 | 54 | 272 | 0.9 | 3.5 | 0.01 | 0.14 | 0.08 | 89 | 1014.1 |
| 20260505101503 | 54 | 280 | 0.9 | 3.5 | 0.01 | 0.14 | 0.08 | 89 | 1014.2 |
| 20260505101003 | 54 | 299 | 0.9 | 3.5 | 0.01 | 0.14 | 0.08 | 89 | 1014.3 |
| 20260505100503 | 54 | 310 | 0.0 | 1.7 | 0.02 | 0.14 | 0.08 | 89 | 1014.4 |
| 20260505100003 | 54 | 275 | 0.0 | 2.6 | 0.02 | 0.14 | 0.08 | 89 | 1014.4 |
| 20260505095715 | 54 | 273 | 0.9 | 2.6 | 0.02 | 0.14 | 0.08 | 89 | 1014.4 |
| 20260505095003 | 54 | 270 | 0.9 | 3.5 | 0.02 | 0.14 | 0.08 | 89 | 1014.4 |
| 20260505094717 | 54 | 272 | 0.9 | 3.5 | 0.02 | 0.14 | 0.08 | 89 | 1014.4 |
| 20260505094219 | 54 | 277 | 0.9 | 3.5 | 0.02 | 0.14 | 0.08 | 89 | 1014.4 |
| 20260505093503 | 54 | 264 | 0.9 | 3.5 | 0.02 | 0.14 | 0.08 | 89 | 1014.4 |
| 20260505093003 | 54 | 263 | 1.7 | 4.3 | 0.02 | 0.14 | 0.08 | 89 | 1014.5 |
| 20260505092503 | 54 | 264 | 0.9 | 4.3 | 0.01 | 0.13 | 0.07 | 89 | 1014.5 |
| 20260505092003 | 54 | 257 | 0.9 | 2.6 | 0.01 | 0.13 | 0.07 | 90 | 1014.5 |
| 20260505091503 | 54 | 258 | 0.9 | 2.6 | 0.02 | 0.13 | 0.07 | 90 | 1014.7 |
| 20260505091003 | 54 | 258 | 0.0 | 1.7 | 0.02 | 0.13 | 0.07 | 90 | 1014.8 |
| 20260505090503 | 54 | 257 | 0.0 | 1.7 | 0.02 | 0.12 | 0.06 | 90 | 1014.8 |
| 20260505090003 | 54 | 273 | 0.0 | 2.6 | 0.02 | 0.12 | 0.06 | 90 | 1014.8 |
| 20260505085503 | 54 | 270 | 0.9 | 3.5 | 0.03 | 0.12 | 0.06 | 90 | 1014.8 |
| 20260505085003 | 54 | 261 | 0.9 | 3.5 | 0.04 | 0.12 | 0.06 | 90 | 1014.9 |
| 20260505084503 | 54 | 259 | 0.0 | 2.6 | 0.05 | 0.12 | 0.06 | 90 | 1014.7 |
| 20260505084003 | 54 | 260 | 0.0 | 2.6 | 0.05 | 0.12 | 0.06 | 90 | 1014.8 |
| 20260505083503 | 54 | 267 | 0.0 | 1.7 | 0.05 | 0.12 | 0.06 | 90 | 1014.9 |
| 20260505083216 | 54 | 278 | 0.0 | 3.5 | 0.05 | 0.12 | 0.06 | 90 | 1014.9 |
| 20260505082717 | 54 | 275 | 0.9 | 3.5 | 0.05 | 0.12 | 0.06 | 89 | 1014.8 |
| 20260505082003 | 54 | 277 | 0.9 | 3.5 | 0.05 | 0.12 | 0.06 | 89 | 1014.9 |
| 20260505081719 | 54 | 264 | 0.9 | 3.5 | 0.05 | 0.11 | 0.05 | 89 | 1014.9 |
| 20260505081003 | 54 | 264 | 0.9 | 2.6 | 0.05 | 0.11 | 0.05 | 89 | 1014.9 |
| 20260505080503 | 54 | 269 | 0.9 | 3.5 | 0.04 | 0.10 | 0.04 | 89 | 1015.1 |
| 20260505080003 | 54 | 262 | 0.9 | 3.5 | 0.04 | 0.10 | 0.04 | 89 | 1015.2 |
| 20260505075503 | 53 | 260 | 0.0 | 2.6 | 0.03 | 0.09 | 0.03 | 89 | 1015.2 |
| 20260505075003 | 53 | 264 | 0.9 | 4.3 | 0.02 | 0.08 | 0.02 | 89 | 1015.1 |
| 20260505074504 | 53 | 262 | 0.9 | 4.3 | 0.01 | 0.07 | 0.01 | 89 | 1014.9 |
| 20260505074003 | 53 | 262 | 0.0 | 1.7 | 0.01 | 0.07 | 0.01 | 89 | 1015.0 |
| 20260505073719 | 53 | 276 | 0.9 | 3.5 | 0.01 | 0.07 | 0.01 | 89 | 1015.1 |
| 20260505073003 | 53 | 278 | 0.9 | 3.5 | 0.01 | 0.07 | 0.01 | 89 | 1015.3 |
| 20260505072503 | 53 | 266 | 0.0 | 2.6 | 0.01 | 0.07 | 0.01 | 89 | 1015.4 |
| 20260505072003 | 53 | 260 | 0.0 | 1.7 | 0.01 | 0.07 | 0.01 | 89 | 1015.4 |
| 20260505071503 | 53 | 263 | 0.0 | 2.6 | 0.01 | 0.06 | 0.00 | 89 | 1015.5 |
| 20260505071003 | 53 | 263 | 0.0 | 2.6 | 0.01 | 0.06 | 0.00 | 89 | 1015.4 |
| 20260505070503 | 53 | 263 | 0.0 | 2.6 | 0.01 | 0.06 | 0.00 | 89 | 1015.4 |
| 20260505070004 | 53 | 262 | 0.0 | 2.6 | 0.01 | 0.06 | 0.00 | 89 | 1015.3 |
| 20260505065503 | 53 | 267 | 0.9 | 2.6 | 0.02 | 0.06 | 0.06 | 88 | 1015.2 |
| 20260505065003 | 53 | 277 | 0.9 | 2.6 | 0.02 | 0.06 | 0.06 | 88 | 1015.2 |
| 20260505064503 | 53 | 292 | 0.9 | 2.6 | 0.02 | 0.06 | 0.06 | 88 | 1015.0 |
| 20260505064003 | 53 | 280 | 0.9 | 3.5 | 0.02 | 0.06 | 0.06 | 88 | 1014.9 |
| 20260505063503 | 53 | 295 | 0.9 | 3.5 | 0.02 | 0.06 | 0.06 | 88 | 1014.9 |
| 20260505063003 | 53 | 311 | 0.9 | 2.6 | 0.03 | 0.06 | 0.06 | 87 | 1014.8 |
| 20260505062716 | 53 | 308 | 0.9 | 2.6 | 0.03 | 0.06 | 0.06 | 87 | 1014.6 |
| 20260505062003 | 53 | 285 | 0.9 | 3.5 | 0.03 | 0.06 | 0.06 | 86 | 1014.7 |
| 20260505061503 | 53 | 270 | 0.9 | 3.5 | 0.02 | 0.05 | 0.05 | 86 | 1014.8 |
| 20260505061003 | 53 | 266 | 0.0 | 2.6 | 0.03 | 0.05 | 0.05 | 86 | 1014.9 |
| 20260505060503 | 53 | 273 | 0.0 | 2.6 | 0.03 | 0.05 | 0.05 | 85 | 1015.0 |
| 20260505060003 | 53 | 276 | 0.0 | 2.6 | 0.03 | 0.05 | 0.05 | 85 | 1015.1 |
| 20260505055503 | 54 | 276 | 0.9 | 2.6 | 0.03 | 0.04 | 0.04 | 85 | 1015.1 |
| 20260505055219 | 54 | 268 | 0.9 | 4.3 | 0.03 | 0.04 | 0.04 | 85 | 1015.1 |
| 20260505054503 | 54 | 266 | 0.9 | 4.3 | 0.04 | 0.04 | 0.04 | 86 | 1015.2 |
| 20260505054003 | 54 | 269 | 0.9 | 3.5 | 0.04 | 0.04 | 0.04 | 87 | 1015.1 |
| 20260505053503 | 54 | 265 | 0.9 | 2.6 | 0.04 | 0.04 | 0.04 | 87 | 1015.0 |
| 20260505053003 | 54 | 266 | 0.0 | 2.6 | 0.03 | 0.03 | 0.03 | 87 | 1015.0 |
| 20260505052503 | 54 | 274 | 0.0 | 1.7 | 0.03 | 0.03 | 0.03 | 87 | 1014.9 |
| 20260505052003 | 54 | 254 | 0.0 | 2.6 | 0.03 | 0.03 | 0.03 | 87 | 1014.9 |
| 20260505051718 | 54 | 241 | 0.0 | 2.6 | 0.03 | 0.03 | 0.03 | 86 | 1014.9 |
| 20260505051003 | 55 | 258 | 0.0 | 3.5 | 0.02 | 0.02 | 0.02 | 86 | 1015.0 |
| 20260505050503 | 55 | 261 | 0.0 | 3.5 | 0.02 | 0.02 | 0.02 | 86 | 1015.2 |
| 20260505041503 | 56 | 279 | 1.7 | 6.1 | 0.00 | 0.00 | 0.00 | 79 | 1015.4 |
| 20260505041003 | 56 | 273 | 1.7 | 6.1 | 0.00 | 0.00 | 0.00 | 79 | 1015.3 |
| 20260505040503 | 56 | 269 | 1.7 | 5.2 | 0.00 | 0.00 | 0.00 | 78 | 1015.1 |
| 20260505040004 | 56 | 278 | 0.9 | 4.3 | 0.00 | 0.00 | 0.00 | 78 | 1014.9 |
| 20260505035503 | 56 | 273 | 1.7 | 4.3 | 0.00 | 0.00 | 0.00 | 78 | 1014.9 |
| 20260505035218 | 56 | 267 | 0.9 | 4.3 | 0.00 | 0.00 | 0.00 | 78 | 1014.7 |
| 20260505034503 | 56 | 266 | 1.7 | 7.0 | 0.00 | 0.00 | 0.00 | 78 | 1014.7 |
| 20260505034003 | 56 | 259 | 1.7 | 7.0 | 0.00 | 0.00 | 0.00 | 78 | 1014.6 |
| 20260505033503 | 56 | 270 | 0.9 | 5.2 | 0.00 | 0.00 | 0.00 | 78 | 1014.5 |
| 20260505033003 | 56 | 295 | 0.9 | 2.6 | 0.00 | 0.00 | 0.00 | 79 | 1014.5 |
| 20260505032719 | 56 | 280 | 0.9 | 6.1 | 0.00 | 0.00 | 0.00 | 79 | 1014.5 |
| 20260505032003 | 56 | 275 | 1.7 | 7.0 | 0.00 | 0.00 | 0.00 | 79 | 1014.4 |
| 20260505031717 | 56 | 270 | 0.9 | 7.0 | 0.00 | 0.00 | 0.00 | 79 | 1014.4 |
| 20260505031003 | 57 | 261 | 0.9 | 6.1 | 0.00 | 0.00 | 0.00 | 81 | 1014.3 |
| 20260505030719 | 57 | 265 | 1.7 | 6.1 | 0.00 | 0.00 | 0.00 | 81 | 1014.4 |
| 20260505030003 | 57 | 278 | 1.7 | 6.1 | 0.00 | 0.00 | 0.00 | 81 | 1014.3 |
| 20260505025503 | 57 | 288 | 1.7 | 4.3 | 0.00 | 0.00 | 0.00 | 81 | 1014.4 |
| 20260505025003 | 57 | 288 | 1.7 | 5.2 | 0.00 | 0.00 | 0.00 | 82 | 1014.5 |
| 20260505024503 | 57 | 330 | 1.7 | 5.2 | 0.00 | 0.00 | 0.00 | 82 | 1014.5 |
| 20260505024216 | 57 | 358 | 1.7 | 5.2 | 0.00 | 0.00 | 0.00 | 82 | 1014.5 |
| 20260505023503 | 57 | 339 | 1.7 | 6.1 | 0.00 | 0.00 | 0.00 | 81 | 1014.5 |
| 20260505023003 | 57 | 296 | 1.7 | 5.2 | 0.00 | 0.00 | 0.00 | 80 | 1014.5 |
| 20260505022503 | 57 | 272 | 1.7 | 4.3 | 0.00 | 0.00 | 0.00 | 81 | 1014.3 |
| 20260505022003 | 57 | 272 | 1.7 | 4.3 | 0.00 | 0.00 | 0.00 | 81 | 1014.2 |
| 20260505021717 | 57 | 273 | 1.7 | 6.1 | 0.00 | 0.00 | 0.00 | 82 | 1014.3 |
| 20260505021003 | 58 | 279 | 1.7 | 6.1 | 0.00 | 0.00 | 0.00 | 82 | 1014.3 |
| 20260505020503 | 58 | 327 | 0.9 | 5.2 | 0.00 | 0.00 | 0.00 | 81 | 1014.3 |
| 20260505020003 | 58 | 342 | 1.7 | 7.0 | 0.00 | 0.00 | 0.00 | 81 | 1014.4 |
| 20260505015503 | 58 | 331 | 2.6 | 7.0 | 0.00 | 0.00 | 0.00 | 81 | 1014.4 |
| 20260505015003 | 58 | 312 | 1.7 | 6.1 | 0.00 | 0.00 | 0.00 | 81 | 1014.5 |
| 20260505014503 | 58 | 307 | 1.7 | 5.2 | 0.00 | 0.00 | 0.00 | 81 | 1014.7 |
| 20260505014215 | 58 | 317 | 0.9 | 5.2 | 0.00 | 0.00 | 0.00 | 81 | 1014.7 |
| 20260505013503 | 59 | 305 | 1.7 | 6.1 | 0.00 | 0.00 | 0.00 | 81 | 1014.7 |
| 20260505013003 | 59 | 320 | 1.7 | 6.1 | 0.00 | 0.00 | 0.00 | 81 | 1014.6 |
| 20260505012503 | 58 | 312 | 1.7 | 6.1 | 0.00 | 0.00 | 0.00 | 81 | 1014.6 |
| 20260505012003 | 58 | 299 | 2.6 | 6.1 | 0.00 | 0.00 | 0.00 | 82 | 1014.5 |
| 20260505011503 | 59 | 293 | 1.7 | 7.0 | 0.00 | 0.00 | 0.00 | 82 | 1014.6 |
| 20260505011003 | 58 | 271 | 1.7 | 8.7 | 0.00 | 0.00 | 0.00 | 83 | 1014.7 |
| 20260505010503 | 58 | 266 | 1.7 | 8.7 | 0.00 | 0.00 | 0.00 | 83 | 1014.6 |
| 20260505010219 | 58 | 265 | 2.6 | 8.7 | 0.00 | 0.00 | 0.00 | 83 | 1014.6 |
| 20260505005503 | 59 | 265 | 1.7 | 8.7 | 0.00 | 0.00 | 0.00 | 82 | 1014.8 |
| 20260505005004 | 59 | 271 | 0.9 | 5.2 | 0.00 | 0.00 | 0.00 | 82 | 1014.8 |
| 20260505004503 | 59 | 273 | 1.7 | 5.2 | 0.00 | 0.00 | 0.00 | 82 | 1014.8 |
| 20260505004003 | 59 | 262 | 1.7 | 6.1 | 0.00 | 0.00 | 0.00 | 82 | 1014.8 |
| 20260505003503 | 59 | 261 | 1.7 | 6.1 | 0.00 | 0.00 | 0.00 | 81 | 1014.9 |
| 20260505003003 | 59 | 275 | 1.7 | 7.0 | 0.00 | 0.00 | 0.00 | 81 | 1014.9 |
| 20260504224003 | 61 | 289 | 1.7 | 7.0 | 0.00 | 0.00 | 0.00 | 76 | 1015.1 |
| 20260504223503 | 61 | 277 | 2.6 | 7.0 | 0.00 | 0.00 | 0.00 | 76 | 1015.0 |
| 20260504223003 | 61 | 266 | 2.6 | 7.0 | 0.00 | 0.00 | 0.00 | 75 | 1015.1 |
| 20260504222503 | 61 | 264 | 2.6 | 7.0 | 0.00 | 0.00 | 0.00 | 74 | 1015.0 |
| 20260504222003 | 62 | 269 | 2.6 | 7.8 | 0.00 | 0.00 | 0.00 | 74 | 1015.1 |
| 20260504221503 | 62 | 271 | 3.5 | 8.7 | 0.00 | 0.00 | 0.00 | 73 | 1015.0 |
| 20260504221003 | 62 | 270 | 3.5 | 8.7 | 0.00 | 0.00 | 0.00 | 74 | 1015.1 |
| 20260504220503 | 62 | 261 | 3.5 | 8.7 | 0.00 | 0.00 | 0.00 | 72 | 1015.2 |
| 20260504220003 | 62 | 268 | 2.6 | 8.7 | 0.00 | 0.00 | 0.00 | 72 | 1015.1 |
| 20260504215719 | 62 | 274 | 2.6 | 7.0 | 0.00 | 0.00 | 0.00 | 73 | 1015.1 |
| 20260504215003 | 63 | 284 | 2.6 | 9.6 | 0.00 | 0.00 | 0.00 | 71 | 1015.1 |
| 20260504214503 | 63 | 284 | 3.5 | 9.6 | 0.00 | 0.00 | 0.00 | 71 | 1015.1 |
| 20260504214003 | 62 | 272 | 3.5 | 9.6 | 0.00 | 0.00 | 0.00 | 72 | 1015.1 |
| 20260504213504 | 63 | 267 | 2.6 | 8.7 | 0.00 | 0.00 | 0.00 | 70 | 1014.9 |
| 20260504213216 | 63 | 272 | 2.6 | 7.0 | 0.00 | 0.00 | 0.00 | 70 | 1014.9 |
| 20260504212717 | 63 | 272 | 3.5 | 7.8 | 0.00 | 0.00 | 0.00 | 70 | 1015.1 |
| 20260504212003 | 63 | 263 | 1.7 | 7.8 | 0.00 | 0.00 | 0.00 | 70 | 1015.1 |
| 20260504211503 | 64 | 260 | 1.7 | 7.0 | 0.00 | 0.00 | 0.00 | 69 | 1015.1 |
| 20260504211003 | 63 | 269 | 2.6 | 7.0 | 0.00 | 0.00 | 0.00 | 70 | 1015.2 |
| 20260504210717 | 63 | 278 | 2.6 | 7.0 | 0.00 | 0.00 | 0.00 | 69 | 1015.2 |
| 20260504210218 | 63 | 291 | 1.7 | 6.1 | 0.00 | 0.00 | 0.00 | 67 | 1015.2 |
| 20260504205503 | 63 | 272 | 1.7 | 7.8 | 0.00 | 0.00 | 0.00 | 70 | 1015.3 |
| 20260504205216 | 63 | 271 | 2.6 | 7.8 | 0.00 | 0.00 | 0.00 | 69 | 1015.3 |
| 20260504204717 | 63 | 277 | 2.6 | 7.0 | 0.00 | 0.00 | 0.00 | 69 | 1015.4 |
| 20260504204003 | 63 | 268 | 2.6 | 7.0 | 0.00 | 0.00 | 0.00 | 70 | 1015.3 |
| 20260504203503 | 63 | 254 | 2.6 | 5.2 | 0.00 | 0.00 | 0.00 | 70 | 1015.2 |
| 20260504203216 | 63 | 256 | 2.6 | 6.1 | 0.00 | 0.00 | 0.00 | 69 | 1015.3 |
| 20260504202503 | 63 | 266 | 2.6 | 8.7 | 0.00 | 0.00 | 0.00 | 69 | 1015.2 |
| 20260504202003 | 63 | 270 | 2.6 | 8.7 | 0.00 | 0.00 | 0.00 | 69 | 1015.1 |
| 20260504201503 | 63 | 266 | 3.5 | 8.7 | 0.00 | 0.00 | 0.00 | 69 | 1015.0 |
| 20260504201003 | 63 | 263 | 2.6 | 8.7 | 0.00 | 0.00 | 0.00 | 69 | 1015.1 |
| 20260504200503 | 64 | 247 | 2.6 | 7.0 | 0.00 | 0.00 | 0.00 | 69 | 1015.2 |
| 20260504200003 | 64 | 244 | 2.6 | 7.0 | 0.00 | 0.00 | 0.00 | 67 | 1015.2 |
| 20260504195503 | 64 | 265 | 2.6 | 6.1 | 0.00 | 0.00 | 0.00 | 68 | 1015.2 |
| 20260504195003 | 64 | 274 | 2.6 | 6.1 | 0.00 | 0.00 | 0.00 | 69 | 1015.1 |
| 20260504194503 | 63 | 266 | 2.6 | 7.8 | 0.00 | 0.00 | 0.00 | 71 | 1015.2 |
| 20260504194003 | 63 | 254 | 2.6 | 9.6 | 0.00 | 0.00 | 0.00 | 70 | 1015.3 |
| 20260504193503 | 63 | 237 | 2.6 | 9.6 | 0.00 | 0.00 | 0.00 | 70 | 1015.2 |
| 20260504193003 | 63 | 238 | 2.6 | 9.6 | 0.00 | 0.00 | 0.00 | 72 | 1015.2 |
| 20260504192503 | 63 | 259 | 2.6 | 7.8 | 0.00 | 0.00 | 0.00 | 72 | 1015.1 |
| 20260504192003 | 62 | 260 | 3.5 | 7.8 | 0.00 | 0.00 | 0.00 | 72 | 1015.2 |
| 20260504191503 | 63 | 253 | 1.7 | 7.0 | 0.00 | 0.00 | 0.00 | 72 | 1015.5 |
| 20260504191219 | 63 | 263 | 2.6 | 7.0 | 0.00 | 0.00 | 0.00 | 72 | 1015.4 |
| 20260504190716 | 62 | 263 | 3.5 | 7.0 | 0.00 | 0.00 | 0.00 | 74 | 1015.4 |
| 20260504190003 | 63 | 262 | 3.5 | 7.8 | 0.00 | 0.00 | 0.00 | 73 | 1015.3 |
| 20260504185718 | 63 | 265 | 3.5 | 7.8 | 0.00 | 0.00 | 0.00 | 72 | 1015.3 |
| 20260504185003 | 63 | 250 | 2.6 | 9.6 | 0.00 | 0.00 | 0.00 | 73 | 1015.3 |
| 20260504184503 | 63 | 269 | 1.7 | 6.1 | 0.00 | 0.00 | 0.00 | 72 | 1015.2 |
| 20260504184003 | 63 | 261 | 2.6 | 7.0 | 0.00 | 0.00 | 0.00 | 72 | 1015.4 |
| 20260504183503 | 63 | 240 | 2.6 | 7.0 | 0.00 | 0.00 | 0.00 | 72 | 1015.3 |
| 20260504183003 | 63 | 250 | 1.7 | 5.2 | 0.00 | 0.00 | 0.00 | 71 | 1015.2 |
| 20260504182503 | 63 | 260 | 1.7 | 7.0 | 0.00 | 0.00 | 0.00 | 70 | 1015.2 |
| 20260504182003 | 63 | 252 | 1.7 | 8.7 | 0.00 | 0.00 | 0.00 | 73 | 1015.2 |
| 20260504181503 | 63 | 230 | 2.6 | 8.7 | 0.00 | 0.00 | 0.00 | 72 | 1015.2 |
| 20260504181003 | 63 | 216 | 2.6 | 7.8 | 0.00 | 0.00 | 0.00 | 72 | 1015.3 |
| 20260504180716 | 63 | 227 | 2.6 | 7.8 | 0.00 | 0.00 | 0.00 | 72 | 1015.2 |
| 20260504180004 | 64 | 205 | 1.7 | 9.6 | 0.00 | 0.00 | 0.00 | 72 | 1015.1 |
| 20260504175503 | 63 | 247 | 2.6 | 9.6 | 0.00 | 0.00 | 0.00 | 73 | 1015.0 |
| 20260504175003 | 62 | 257 | 2.6 | 7.0 | 0.00 | 0.00 | 0.00 | 73 | 1015.1 |
| 20260504174503 | 62 | 234 | 1.7 | 6.1 | 0.00 | 0.00 | 0.00 | 71 | 1015.1 |
| 20260504174003 | 62 | 228 | 1.7 | 6.1 | 0.00 | 0.00 | 0.00 | 73 | 1015.0 |
| 20260504173503 | 62 | 233 | 1.7 | 5.2 | 0.00 | 0.00 | 0.00 | 72 | 1015.0 |
| 20260504173008 | 62 | 219 | 1.7 | 5.2 | 0.00 | 0.00 | 0.00 | 72 | 1014.9 |
| 20260504172719 | 62 | 224 | 1.7 | 5.2 | 0.00 | 0.00 | 0.00 | 72 | 1014.9 |
| 20260504172003 | 62 | 248 | 1.7 | 5.2 | 0.00 | 0.00 | 0.00 | 72 | 1014.9 |
| 20260504171503 | 62 | 325 | 1.7 | 5.2 | 0.00 | 0.00 | 0.00 | 72 | 1014.7 |
| 20260504171003 | 61 | 327 | 1.7 | 5.2 | 0.00 | 0.00 | 0.00 | 73 | 1014.7 |
| 20260504170719 | 61 | 297 | 1.7 | 6.1 | 0.00 | 0.00 | 0.00 | 72 | 1014.6 |
| 20260504151003 | 60 | 270 | 0.0 | 2.6 | 0.00 | 0.00 | 0.00 | 78 | 1014.5 |
| 20260504150503 | 61 | 218 | 0.0 | 1.7 | 0.00 | 0.00 | 0.00 | 79 | 1014.4 |
| 20260504141003 | 56 | 0 | 0.0 | 0.0 | 0.00 | 0.00 | 0.00 | 89 | 1014.5 |
| 20260504140503 | 55 | 0 | 0.0 | 0.0 | 0.00 | 0.00 | 0.00 | 89 | 1014.5 |
| 20260504130503 | 54 | 0 | 0.0 | 0.0 | 0.00 | 0.00 | 0.00 | 90 | 1014.1 |